Schaffen, Belgium

11:22 PM CEST on July 26, 2017 (GMT +0200)
Schaffen

Weather History for EBDT - July, 2013

Change the Weather History Date:

Friday, July 19, 2013

  Actual Average Record
Temperature  
Mean Temperature 70 °F -  
Max Temperature 82 °F 67 °F 91 °F (2014)
Min Temperature 59 °F 58 °F 48 °F (1996)
Cooling Degree Days 6    
Growing Degree Days 20 (Base 50)    
Moisture  
Dew Point 56 °F    
Average Humidity 57    
Maximum Humidity 88    
Minimum Humidity 32    
Precipitation  
Precipitation 0.00 in - - ()
Sea Level Pressure  
Sea Level Pressure 30.22 in    
Wind  
Wind Speed 9 mph ()    
Max Wind Speed 14 mph    
Max Gust Speed -    
Visibility 7.9 miles    
Events      
Averages and records for this station are not official NWS values.
T = Trace of Precipitation, MM = Missing Value Source: Averaged Metar Reports

Daily Weather History Graph

Daily Weather History Graph

Search for Another Location

Airport or City:

Trip Planner

Search our weather history database for the weather conditions in past years. The results will help you decide how hot, cold, wet, or windy it might be!

Date:

Astronomy

Jul. 19, 2013 Rise Set
Actual Time 5:47 AM CEST 9:43 PM CEST
Civil Twilight 5:04 AM CEST 10:26 PM CEST
Nautical Twilight 4:04 AM CEST 11:26 PM CEST
Astronomical Twilight 2:07 AM CEST 1:14 AM CEST
Moon 6:27 PM CEST (7/19) 2:18 AM CEST (7/19)
Length of Visible Light 17h 21m
Length of Day
15h 56m
Waxing Gibbous, 84% of the Moon is Illuminated
Jul 19
Waxing Gibbous
Jul 22
Full
Jul 29
Last Quarter
Aug 6
New
Aug 14
First Quarter

Hourly Weather History & Observations

Time (CEST) Temp. Heat Index Dew Point Humidity Pressure Visibility Wind Dir Wind Speed Gust Speed Precip Events Conditions
12:25 AM 68.0 °F - 57.2 °F 68% 30.24 in 6.2 mi NNE 8.1 mph - N/A   Clear
1:25 AM 68.0 °F - 57.2 °F 68% 30.24 in 6.2 mi NE 8.1 mph - N/A   Clear
2:00 AM 68 °F - 58 °F 64% 30.25 in 28 mi NE 11.2 mph - -  
2:25 AM 68.0 °F - 59.0 °F 73% 30.24 in 6.2 mi NE 9.2 mph - N/A   Clear
3:25 AM 66.2 °F - 57.2 °F 73% 30.24 in 6.2 mi NE 8.1 mph - N/A   Clear
4:25 AM 62.6 °F - 57.2 °F 82% 30.24 in 6.2 mi NNE 6.9 mph - N/A   Clear
5:00 AM 62 °F - 56 °F 76% 30.25 in 14 mi NNE 6.7 mph - -  
5:25 AM 60.8 °F - 57.2 °F 88% 30.24 in 6.2 mi NNE 5.8 mph - N/A   Clear
6:25 AM 60.8 °F - 55.4 °F 82% 30.24 in 6.2 mi NNE 6.9 mph - N/A   Clear
7:25 AM 62.6 °F - 55.4 °F 77% 30.24 in 6.2 mi NE 6.9 mph - N/A   Clear
8:00 AM 64 °F - 56 °F 69% 30.26 in 12 mi NE 6.7 mph - -  
8:25 AM 66.2 °F - 55.4 °F 68% 30.24 in 6.2 mi ENE 8.1 mph - N/A   Clear
9:25 AM 69.8 °F - 55.4 °F 60% 30.24 in 6.2 mi ENE 10.4 mph - N/A   Clear
10:25 AM 73.4 °F - 55.4 °F 53% 30.24 in 6.2 mi NE 11.5 mph - N/A   Clear
11:00 AM 74 °F - 56 °F 43% 30.26 in 19 mi NE 11.2 mph - -  
11:25 AM 75.2 °F - 55.4 °F 50% 30.24 in 6.2 mi NNE 13.8 mph - N/A   Clear
12:25 PM 78.8 °F - 57.2 °F 47% 30.24 in 6.2 mi NE 11.5 mph - N/A   Partly Cloudy
1:25 PM 78.8 °F - 57.2 °F 47% 30.24 in 6.2 mi ENE 10.4 mph - N/A   Clear
2:00 PM 80 °F - 56 °F 34% 30.24 in 17 mi NE 13.4 mph - -  
2:25 PM 80.6 °F 80.5 °F 55.4 °F 42% 30.21 in 6.2 mi ENE 11.5 mph - N/A   Clear
3:25 PM 80.6 °F 80.8 °F 57.2 °F 45% 30.21 in 6.2 mi NE 12.7 mph - N/A   Clear
4:25 PM 80.6 °F 80.8 °F 57.2 °F 45% 30.21 in 6.2 mi ENE 11.5 mph - N/A   Scattered Clouds
5:00 PM 82 °F - 57 °F 32% 30.20 in 19 mi NE 13.4 mph - -   Scattered Clouds
5:25 PM 80.6 °F 80.5 °F 55.4 °F 42% 30.18 in 6.2 mi NNE 12.7 mph - N/A   Partly Cloudy
6:25 PM 80.6 °F 80.5 °F 55.4 °F 42% 30.18 in 6.2 mi NNE 11.5 mph - N/A   Partly Cloudy
7:25 PM 80.6 °F 80.8 °F 57.2 °F 45% 30.18 in 6.2 mi NNE 11.5 mph - N/A   Scattered Clouds
8:00 PM 78 °F - 57 °F 38% 30.18 in 28 mi NE 11.2 mph - -   Mostly Cloudy
8:25 PM 77.0 °F - 55.4 °F 47% 30.18 in 6.2 mi NNE 11.5 mph - N/A   Partly Cloudy
9:25 PM 75.2 °F - 55.4 °F 50% 30.18 in 6.2 mi NE 11.5 mph - N/A   Partly Cloudy
10:25 PM 69.8 °F - 55.4 °F 60% 30.18 in 6.2 mi NNE 12.7 mph - N/A   Clear
11:00 PM 69 °F - 56 °F 54% 30.21 in 22 mi NNE 11.2 mph - -  
11:25 PM 68.0 °F - 55.4 °F 64% 30.21 in 6.2 mi NNE 10.4 mph - N/A   Clear